User: anonymous   Login
Location: Unspecified
(0.0000°N, 0.0000°E)
Time: 23:55:25
(UTC+02:00)
Language:

Landsat 4 - Orbit

View from above orbital plane
View from above orbital plane
View from above satellite
View from above satellite

Ground track
Ground track

The orbit data is extracted from the following two-line orbital elements,

1 13367U 82072A   15188.46023775  .00002963  00000-0  16939-3 0  9997
2 13367 098.1811 284.1592 0015452 097.0991 033.4637 15.13488760777429
Epoch (UTC): 07 July 2015 11:02:44
Eccentricity: 0.0015452
inclination: 98.1811°
perigee height: 515 km
apogee height: 536 km
right ascension of ascending node: 284.1592°
argument of perigee: 97.0991°
revolutions per day: 15.13488760
mean anomaly at epoch: 33.4637°
orbit number at epoch: 77742

The dashed part of the orbit path shows where the satellite is in the earth's shadow,  

DLR